ジャコビニ-ツィナー彗星

21P/Giacobini-Zinner (2025)

English version
Home page
Updated on November 27, 2024

---------------------------------------------------------------------

・ プロフィール

・ 軌道要素

Epoch 2024 Mar. 31.0 TT = JDT 2460400.5
T 2025 Mar. 25.33093 TT                                 Rudenko
q   1.0089930            (2000.0)            P               Q
n   0.15095750     Peri.  172.91563     +0.98466288     -0.10357172
a   3.4932762      Node   195.34021     +0.12234408     +0.98361269
e   0.7111614      Incl.   32.05341     +0.12438227     -0.14757699
P   6.53
>From 4688 observations 2011 May 1-2024 May 8, mean residual 0".9.
     Nongravitational parameters A1 = +0.38, A2 = -0.1567.

・ 星図

・ 光度変化

        m1 =  9.0 + 5 logΔ + 20.0 log r(t + 8)  [   ,  0]  (              〜2025年 3月25日)
        m1 =  9.0 + 5 logΔ + 16.0 log r(t + 8)  [  0,190]  (2025年 3月25日〜2025年10月 1日)
        m1 = 11.5 + 5 logΔ + 10.0 log r         [190,   ]  (2025年10月 1日〜              )

---------------------------------------------------------------------

軌道要素はM.P.E.C. 2024-J304に掲載されたものです。
星図はステラナビゲータ Ver.11 (アストロアーツ) で作成したものです。
光度グラフはComet for Windowsで作成したものです。

---------------------------------------------------------------------

Copyright(C) Seiichi Yoshida (comet@aerith.net). All rights reserved.